Location: Pulvis Stellarum Observatory
(41.6962°N, 71.4263°W)
Time: 12:27:08
(UTC-04:00)

Daily predictions for brighter satellites

Satellite Brightness Start Highest point End
(mag) Time Altitude Azimuth Time Altitude Azimuth Time Altitude Azimuth
Cosmos 1666 3.5 20:37:15 10° N 20:40:53 36° ENE 20:44:30 10° SE
Cosmos 1500 4.4 20:38:31 10° NNW 20:42:14 44° W 20:45:56 10° SSW
COSMOS 2455 4.0 20:38:14 10° SSE 20:42:42 22° ESE 20:47:11 10° ENE
Cosmos 1939 Rocket 3.5 20:42:38 10° SE 20:46:34 43° ENE 20:50:31 10° N
ATLAS 3B R/B 4.3 20:44:21 10° SE 20:48:43 16° ESE 20:53:02 10° ENE
APEX 3.8 20:47:18 10° NNW 20:51:15 61° ENE 20:56:24 10° SE
Cosmos 2228 3.2 20:48:46 10° N 20:53:07 56° E 20:57:26 10° SSE
Cosmos 1743 3.4 20:50:56 10° NNW 20:54:43 55° W 20:58:27 10° S
Lacrosse 5 rocket 2.7 20:51:55 10° WSW 20:55:36 42° NW 20:59:30 10° NE
Cosmos 1025 Rocket 4.1 20:51:29 10° SSW 20:55:44 49° W 21:00:00 10° N
Meteor 1-23 Rocket 4.2 20:50:42 10° S 20:56:19 83° E 21:02:04 10° NNE
Cosmos 2251 Rocket 4.3 20:52:32 10° SSW 20:57:47 60° WNW 21:03:06 10° NNE
Nimbus 7 Rocket 4.5 20:57:26 10° NNE 21:03:21 61° ESE 21:09:10 10° S
Cosmos 1892 Rocket 4.3 20:59:30 10° SSW 21:03:53 59° W 21:08:19 10° N
ERS-1 Rocket 3.2 20:58:54 10° S 21:03:54 74° WSW 21:08:56 10° NNW
Cosmos 1603 4.0 20:59:45 10° S 21:05:05 46° ESE 21:10:25 10° NE
USA 234 3.7 20:58:56 10° ESE 21:05:18 56° NNE 21:11:42 10° NW
Envisat 3.1 21:02:47 10° SSE 21:07:47 63° ENE 21:12:49 10° N
Meteor 2-9 Rocket 4.3 21:03:51 10° N 21:09:34 89° W 21:15:22 10° S
USA 186 4.4 21:11:54 10° SW 21:13:42 15° W 21:15:28 10° NW
Abrixas rocket 2.7 21:12:44 10° WNW 21:16:05 54° SSW 21:18:26 18° SE
Meteor 2-4 Rocket 4.2 21:10:17 10° SSW 21:16:06 68° WNW 21:22:02 10° N
Okean 2 4.2 21:14:14 10° SSW 21:18:20 56° W 21:22:28 10° N
BREEZE M DEB (TANK) 1.5 21:17:49 10° WNW 21:20:33 60° N 21:21:56 17° E
UNK 4.4 21:16:06 10° NNE 21:21:24 54° ESE 21:26:58 10° S
Lacrosse 4 Rocket 3.5 21:22:55 11° E 21:22:55 11° E 21:23:17 10° E
Tsikada Rocket 4.1 21:18:18 10° S 21:24:40 71° E 21:31:02 10° NNE
Timation 1 Rocket 4.4 21:18:59 10° NNW 21:25:02 87° WSW 21:30:11 15° SSE
Cosmos 1943 4.0 21:25:39 13° SSE 21:29:48 31° ESE 21:34:43 10° NE
YAOGAN 6 3.2 21:27:50 20° SE 21:30:01 43° ENE 21:33:35 10° N
ISS -2.7 21:31:01 10° SSW 21:34:00 33° SE 21:36:59 10° ENE
PSLV R/B 3.6 21:30:37 10° WSW 21:34:02 47° SSE 21:36:27 18° E
Cosmos 1943 Rocket 4.1 21:34:38 10° N 21:38:10 17° NE 21:41:43 10° E
Cosmos 1461 3.2 21:35:20 10° NW 21:39:35 61° WSW 21:42:09 21° SSE
MetOp-A 4.1 21:35:19 16° SSE 21:39:41 84° ENE 21:45:04 10° NNW
SPOT 5 2.8 21:36:20 14° S 21:40:07 71° WSW 21:44:28 10° NNW
Cosmos 1992 Rocket 4.3 21:39:51 10° N 21:45:00 55° ENE 21:48:02 24° SE
Cosmos 1602 Rocket 4.3 21:42:34 10° SSW 21:46:58 56° W 21:51:23 10° N
H-2A R/B 3.1 21:48:11 20° ESE 21:50:33 29° ENE 21:54:51 10° N
SL-08 RB Rocket 4.1 21:49:12 26° SE 21:51:29 48° ENE 21:55:51 10° N
Cosmos 1825 Rocket 3.8 21:49:41 25° SSE 21:52:03 52° E 21:56:23 10° NNE
Cosmos 1812 Rocket 3.9 21:53:01 10° NNW 21:57:21 61° W 22:00:27 19° S
SPOT 1/Viking Rocket 3.5 21:55:43 23° SSE 21:59:01 89° E 22:04:13 10° NNW
Geosat 4.2 21:56:26 10° NE 22:01:19 49° ESE 22:04:14 23° S
Terra 2.8 22:00:40 24° ESE 22:02:32 33° ENE 22:06:47 10° N
Cosmos 1190 Rocket 4.2 22:00:19 23° S 22:03:21 51° ESE 22:08:30 10° NNE
Cosmos 1634 Rocket 3.9 21:59:02 10° N 22:05:14 74° E 22:08:55 26° SSE
USA 245 4.4 22:05:43 21° S 22:09:55 74° WSW 22:15:14 10° NNW
SeaSat 1 3.5 22:07:21 18° S 22:10:33 38° WSW 22:15:10 10° NW
Atlas Centaur 2 3.6 22:04:55 10° SW 22:11:59 36° S 22:15:35 26° SE
ARGOS 3.1 22:10:34 27° SSE 22:13:38 86° WSW 22:19:06 10° NNW
Cosmos 2369 Rocket 2.2 22:08:11 10° NNW 22:13:52 72° ENE 22:16:29 33° SE
CZ-4C R/B 3.4 22:12:56 39° SSE 22:14:26 74° ENE 22:18:33 10° N
DEBRIS 4.1 22:12:52 10° W 22:15:22 18° SW 22:15:34 17° SW
CZ-4B R/B 4.1 22:12:17 10° N 22:17:16 58° WNW 22:22:19 10° SSW
Cosmos 676 Rocket 4.4 22:18:19 35° SE 22:19:47 43° ESE 22:24:48 10° NNE
Cosmos 489 Rocket 4.5 22:20:18 25° S 22:24:08 64° ESE 22:30:27 10° NNE
NOAA 11 4.2 22:22:44 30° S 22:25:32 74° WSW 22:30:59 10° NNW
COSMOS 2455 3.4 22:22:12 10° SW 22:28:07 60° WNW 22:34:06 10° NNE
Cosmos 2279 Rocket 4.0 22:23:36 10° N 22:29:50 68° E 22:32:31 35° SSE
Cosmos 1953 3.2 22:30:32 10° N 22:34:12 34° ENE 22:34:19 33° E
Cosmos 1953 Rocket 3.8 22:35:33 33° SSW 22:37:23 68° W 22:41:50 10° N
Meteor 1-22 Rocket 4.3 22:31:56 10° NNW 22:37:30 77° W 22:40:02 35° S
Cosmos 2263 4.1 22:31:54 10° NNW 22:37:33 80° ENE 22:39:31 42° SE
ATLAS 3B R/B 2.9 22:30:44 10° SSW 22:38:26 81° ESE 22:46:00 10° NE
COSMOS 2406 4.1 22:39:06 29° ESE 22:39:09 29° ESE 22:44:01 10° NE
IGS 5A 3.3 22:43:55 64° SE 22:44:28 78° ENE 22:48:39 10° N
Cosmos 2180 Rocket 4.5 22:41:23 10° N 22:47:40 78° E 22:50:03 41° SSE
USA 234 3.7 22:45:49 32° S 22:48:21 47° SW 22:54:39 10° WNW
Cosmos 407 Rocket 3.6 22:49:26 28° SSW 22:52:15 74° WNW 22:57:30 10° NNE
SL-27 R/B 4.0 22:55:23 26° NE 22:55:23 26° NE 22:57:06 10° NNE
Cosmos 1346 Rocket 4.0 22:56:00 28° WSW 22:57:21 37° WNW 23:01:02 10° N
Cosmos-2242 2.9 22:53:31 10° N 22:57:58 83° E 22:58:21 73° SSE
SL-23 DEB 4.5 22:53:52 10° SW 23:01:53 22° ENE 23:03:05 10° ENE
Lacrosse 4 Rocket 1.7 22:59:12 43° WSW 23:00:18 61° WNW 23:04:22 10° NNE
ISS -1.5 23:07:26 10° W 23:10:26 33° NNW 23:13:26 10° NE
Cosmos 1954 Rocket 4.0 23:09:48 50° SSW 23:11:15 86° WNW 23:16:35 10° NNE
USA 238 DEB 3.8 23:10:59 43° S 23:13:06 60° ESE 23:20:03 10° NE
USA 238 3.8 23:11:09 44° S 23:13:12 59° ESE 23:20:08 10° NE
Cosmos 1943 4.4 23:08:25 10° SW 23:13:41 39° WNW 23:19:02 10° N
Cosmos 1842 3.8 23:13:33 52° W 23:13:45 53° W 23:17:37 10° N
CARTOSAT-1 4.4 23:14:29 38° WSW 23:15:02 40° W 23:19:07 10° NNW
CZ-4B R/B 4.0 23:17:06 15° ENE 23:17:06 15° ENE 23:18:57 10° NNE
Cosmos 1544 4.1 23:14:35 10° N 23:17:29 40° NE 23:17:29 40° NE
Cosmos 1758 3.5 23:15:04 10° NNW 23:19:02 70° WNW 23:19:02 70° WNW
Cosmos 1943 Rocket 2.0 23:17:02 10° NNW 23:22:36 81° WSW 23:23:31 63° S
Spot 4 4.3 23:22:16 45° SW 23:22:56 48° W 23:27:34 10° NNW
ALOS 2 4.1 23:25:26 26° ENE 23:25:34 26° ENE 23:29:12 10° NNE
Cosmos 1741 Rocket 3.9 23:27:52 65° ESE 23:28:03 65° ESE 23:33:19 10° NNE
Meteor 2-5 Rocket 4.0 23:28:42 49° ESE 23:29:16 51° E 23:34:53 10° NNE
H-2A R/B 3.1 23:28:49 30° WSW 23:29:52 33° W 23:34:24 10° NNW
Cosmos 1092 Rocket 3.9 23:33:02 56° S 23:34:29 82° E 23:40:49 10° N
Cosmos 1656 Rocket 3.7 23:34:09 10° NNW 23:39:50 69° ENE 23:40:42 59° ESE
Terra 3.3 23:39:33 25° WSW 23:40:17 26° W 23:44:17 10° NW
Cosmos 1842 Rocket 3.8 23:37:28 10° NNW 23:41:34 63° WNW 23:41:34 63° WNW
Cosmos 1570 Rocket 3.9 23:37:48 10° NNW 23:43:10 76° WSW 23:43:34 71° SSW
Cosmos 1733 4.2 23:42:31 10° N 23:45:24 43° NNE 23:45:24 43° NNE
Cosmos 1850 Rocket 3.9 23:46:11 73° SW 23:46:40 83° WNW 23:51:55 10° NNE
Nadezhda 4 Rocket 4.3 23:45:01 41° SW 23:47:05 60° W 23:53:22 10° N
NOSS 3-2 (C) 4.4 23:48:25 31° E 23:48:25 31° E 23:53:23 10° NE
CZ-2C R/B 4.4 23:49:37 10° NE 23:53:14 19° E 23:53:14 19° E
CZ-4C R/B 3.1 23:54:52 33° E 23:54:52 33° E 23:59:03 10° NE
